| time (UTC) | temp F | wind direction | speed MPH | gust MPH | rain 1hr in | rain 24hr in | rain mn in | humidity % | barometer mb |
| 20260503212529 | 71 | 308 | 7.0 | 6.0 | 0.00 | 0.01 | 0.00 | ||
| 20260503211030 | 71 | 359 | 8.0 | 7.0 | 0.00 | 0.01 | 0.00 | ||
| 20260503204032 | 69 | 359 | 7.0 | 7.0 | 0.00 | 0.01 | 0.00 | ||
| 20260503201033 | 69 | 350 | 3.0 | 6.0 | 0.00 | 0.01 | 0.00 | ||
| 20260503195534 | 67 | 291 | 6.0 | 9.0 | 0.00 | 0.01 | 0.00 | ||
| 20260503194035 | 67 | 21 | 4.0 | 3.0 | 0.00 | 0.01 | 0.00 | ||
| 20260503192536 | 66 | 335 | 3.0 | 3.0 | 0.00 | 0.01 | 0.00 | ||
| 20260503191037 | 65 | 323 | 4.0 | 4.0 | 0.00 | 0.01 | 0.00 | ||
| 20260503185537 | 64 | 3 | 3.0 | 2.0 | 0.00 | 0.01 | 0.00 | ||
| 20260503184039 | 63 | 347 | 5.0 | 2.0 | 0.00 | 0.01 | 0.00 | ||
| 20260503172545 | 60 | 352 | 4.0 | 6.0 | 0.00 | 0.01 | 0.00 | ||
| 20260503131108 | 42 | 8 | 0.0 | 0.0 | 0.00 | 0.01 | 0.00 | ||
| 20260503081143 | 36 | 8 | 0.0 | 0.0 | 0.00 | 0.01 | 0.00 | ||
| 20260503072648 | 36 | 8 | 0.0 | 0.0 | 0.00 | 0.01 | 0.00 | ||
| 20260503071150 | 36 | 8 | 0.0 | 0.0 | 0.00 | 0.01 | 0.00 | ||
| 20260503054200 | 40 | 8 | 0.0 | 0.0 | 0.00 | 0.00 | 0.01 | ||
| 20260503052702 | 40 | 8 | 0.0 | 0.0 | 0.00 | 0.00 | 0.01 | ||
| 20260503051204 | 39 | 8 | 0.0 | 0.0 | 0.00 | 0.00 | 0.01 | ||
| 20260503044208 | 38 | 8 | 0.0 | 0.0 | 0.00 | 0.00 | 0.01 | ||
| 20260503042709 | 39 | 8 | 0.0 | 0.0 | 0.00 | 0.00 | 0.01 | ||
| 20260503041211 | 41 | 8 | 0.0 | 0.0 | 0.00 | 0.00 | 0.01 | ||
| 20260503035712 | 41 | 8 | 0.0 | 0.0 | 0.00 | 0.00 | 0.01 | ||
| 20260503034214 | 42 | 8 | 0.0 | 0.0 | 0.00 | 0.00 | 0.01 | ||
| 20260503031218 | 42 | 8 | 0.0 | 0.0 | 0.00 | 0.00 | 0.01 | ||
| 20260503025719 | 42 | 8 | 0.0 | 0.0 | 0.00 | 0.00 | 0.01 | ||
| 20260503024220 | 41 | 8 | 0.0 | 0.0 | 0.00 | 0.00 | 0.01 | ||
| 20260503022722 | 42 | 8 | 0.0 | 0.0 | 0.00 | 0.00 | 0.01 | ||
| 20260503015724 | 45 | 8 | 0.0 | 0.0 | 0.00 | 0.00 | 0.01 | ||
| 20260503014225 | 49 | 8 | 0.0 | 0.0 | 0.00 | 0.00 | 0.01 | ||
| 20260503012726 | 55 | 8 | 0.0 | 0.0 | 0.00 | 0.00 | 0.01 | ||
| 20260503011227 | 59 | 8 | 0.0 | 0.0 | 0.00 | 0.00 | 0.01 | ||
| 20260503002731 | 56 | 8 | 0.0 | 0.0 | 0.00 | 0.00 | 0.01 | ||
| 20260502235733 | 55 | 58 | 2.0 | 3.0 | 0.00 | 0.00 | 0.01 | ||
| 20260502234235 | 57 | 39 | 1.0 | 0.0 | 0.00 | 0.00 | 0.01 | ||
| 20260502232736 | 55 | 104 | 0.0 | 0.0 | 0.00 | 0.00 | 0.01 | ||
| 20260502231237 | 47 | 162 | 0.0 | 0.0 | 0.00 | 0.00 | 0.01 | ||
| 20260502225739 | 47 | 169 | 2.0 | 3.0 | 0.01 | 0.00 | 0.01 | ||
| 20260502224240 | 47 | 127 | 1.0 | 1.0 | 0.01 | 0.00 | 0.01 | ||
| 20260502222742 | 48 | 173 | 0.0 | 0.0 | 0.01 | 0.00 | 0.01 | ||
| 20260502221243 | 48 | 204 | 1.0 | 2.0 | 0.01 | 0.00 | 0.01 | ||
| 20260502215745 | 46 | 107 | 4.0 | 5.0 | 0.00 | 0.00 | 0.01 | ||
| 20260502214246 | 46 | 96 | 2.0 | 0.0 | 0.00 | 0.00 | 0.01 |